User: anonymous
Location: Gipe Farm
(40.9466°N, 95.5370°W)
Time: 23:25:10
(UTC-05:00)
Language:

Cosmos 2082 Rocket - Orbit

View from above orbital plane
View from above orbital plane
View from above satellite
View from above satellite

Ground track
Ground track

The orbit data is extracted from the following two-line orbital elements,

1 20625U 90046B   14244.74827872  .00000095  00000-0  74467-4 0  7987
2 20625 070.9985 128.6243 0015496 222.3295 193.7847 14.14528192253670
Epoch (UTC): 01 September 2014 17:57:31
Eccentricity: 0.0015496
inclination: 70.9985°
perigee height: 833 km
apogee height: 855 km
right ascension of ascending node: 128.6243°
argument of perigee: 222.3295°
revolutions per day: 14.14528192
mean anomaly at epoch: 193.7847°
orbit number at epoch: 25367

The dashed part of the orbit path shows where the satellite is in the earth's shadow,  

DLR